Hastings, NE

5:06 PM CST on November 23, 2017 (GMT -0600)
Hastings Municipal

Weather History for KHSI - December, 2011

Change the Weather History Date:

Thursday, December 1, 2011

  Actual Average Record
Temperature  
Mean Temperature 23 °F 32 °F  
Max Temperature 34 °F 41 °F 71 °F (1998)
Min Temperature 12 °F 22 °F -6 °F (1919)
Degree Days  
Heating Degree Days 42 33  
Month to date heating degree days 42 33  
Since 1 July heating degree days 1272 1314  
Cooling Degree Days 0 0  
Month to date cooling degree days 0 0  
Year to date cooling degree days 1119 1077  
Moisture  
Dew Point 19 °F    
Average Humidity 61    
Maximum Humidity 82    
Minimum Humidity 39    
Precipitation  
Precipitation 0.00 in 0.04 in 0.59 in (2007)
Month to date precipitation 0.00 0.04  
Year to date precipitation 26.11 26.54  
Snow  
Snow 0.00 in 0.20 in 3.50 in (1981)
Month to date snowfall 0.0 0.2  
Since 1 July snowfall T 4.0  
Snow Depth 0.00 in    
Sea Level Pressure  
Sea Level Pressure 30.37 in    
Wind  
Wind Speed 18 mph (North)    
Max Wind Speed 33 mph    
Max Gust Speed 41 mph    
Visibility 10 miles    
Events      
T = Trace of Precipitation, MM = Missing Value Source: NWS Daily Summary

Daily Weather History Graph

Daily Weather History Graph

Search for Another Location

Airport or City:

Trip Planner

Search our weather history database for the weather conditions in past years. The results will help you decide how hot, cold, wet, or windy it might be!

Date:

Astronomy

Dec. 01, 2011 Rise Set
Actual Time 7:37 AM CST 5:07 PM CST
Civil Twilight 7:07 AM CST 5:37 PM CST
Nautical Twilight 6:33 AM CST 6:11 PM CST
Astronomical Twilight 6:00 AM CST 6:44 PM CST
Moon 12:22 PM CST (12/1) No Moon Set
Length of Visible Light 10h 30m
Length of Day
9h 29m
Waxing Crescent, 43% of the Moon is Illuminated
Dec 1
Waxing Crescent
Dec 2
First Quarter
Dec 10
Full
Dec 17
Last Quarter
Dec 24
New

Hourly Weather History & Observations

Time (CST) Temp. Windchill Dew Point Humidity Pressure Visibility Wind Dir Wind Speed Gust Speed Precip Events Conditions
12:53 AM 28.9 °F 22.8 °F 23.0 °F 78% 29.99 in 10.0 mi NNW 5.8 mph - N/A   Clear
1:53 AM 33.1 °F 23.9 °F 25.0 °F 72% 30.00 in 10.0 mi North 12.7 mph - N/A   Clear
2:53 AM 34.0 °F 24.2 °F 24.1 °F 67% 30.04 in 10.0 mi North 15.0 mph - N/A   Clear
3:53 AM 34.0 °F 22.7 °F 23.0 °F 64% 30.06 in 10.0 mi North 19.6 mph 26.5 mph N/A   Clear
4:53 AM 34.0 °F 22.1 °F 23.0 °F 64% 30.10 in 10.0 mi North 21.9 mph 31.1 mph N/A   Clear
5:53 AM 33.1 °F 20.9 °F 24.1 °F 70% 30.17 in 10.0 mi North 21.9 mph 29.9 mph N/A   Clear
6:53 AM 34.0 °F 21.5 °F 27.0 °F 75% 30.22 in 10.0 mi North 24.2 mph 34.5 mph N/A   Mostly Cloudy
7:29 AM 33.8 °F 19.9 °F 28.4 °F 81% 30.22 in 10.0 mi North 31.1 mph 41.4 mph N/A   Overcast
7:53 AM 33.1 °F 19.1 °F 28.0 °F 82% 30.27 in 10.0 mi North 29.9 mph 39.1 mph N/A   Overcast
8:35 AM 33.8 °F 19.9 °F 28.4 °F 81% 30.26 in 10.0 mi North 31.1 mph 36.8 mph N/A   Overcast
8:53 AM 33.1 °F 19.8 °F 28.0 °F 82% 30.33 in 10.0 mi NNE 26.5 mph 40.3 mph N/A   Overcast
9:53 AM 32.0 °F 18.6 °F 26.1 °F 79% 30.40 in 10.0 mi North 25.3 mph 35.7 mph N/A   Overcast
10:53 AM 32.0 °F 19.2 °F 25.0 °F 75% 30.43 in 10.0 mi North 23.0 mph 34.5 mph N/A   Overcast
11:19 AM 32.0 °F 19.5 °F 24.8 °F 75% 30.39 in 10.0 mi North 21.9 mph 28.8 mph N/A   Overcast
11:53 AM 30.9 °F 17.8 °F 23.0 °F 72% 30.46 in 10.0 mi North 23.0 mph 29.9 mph N/A   Overcast
12:53 PM 30.0 °F 14.7 °F 21.0 °F 69% 30.47 in 10.0 mi North 31.1 mph 36.8 mph N/A   Overcast
1:53 PM 32.0 °F 18.6 °F 19.9 °F 61% 30.47 in 10.0 mi North 25.3 mph 32.2 mph N/A   Overcast
2:48 PM 32.0 °F 18.1 °F 15.8 °F 51% 30.43 in 10.0 mi North 27.6 mph 34.5 mph N/A   Partly Cloudy
2:53 PM 30.2 °F 16.2 °F 14.0 °F 51% 30.43 in 10.0 mi North 25.3 mph 34.5 mph N/A   Partly Cloudy
3:53 PM 30.0 °F 16.3 °F 8.1 °F 40% 30.52 in 10.0 mi North 24.2 mph 29.9 mph N/A   Partly Cloudy
4:53 PM 28.9 °F 16.1 °F 8.1 °F 41% 30.53 in 10.0 mi North 19.6 mph 28.8 mph N/A   Overcast
5:53 PM 26.1 °F 15.0 °F 9.0 °F 49% 30.55 in 10.0 mi North 12.7 mph - N/A   Clear
6:53 PM 23.0 °F 13.9 °F 10.0 °F 58% 30.57 in 10.0 mi North 8.1 mph - N/A   Clear
7:53 PM 19.9 °F 10.1 °F 9.0 °F 62% 30.59 in 10.0 mi NNW 8.1 mph - N/A   Clear
8:53 PM 18.0 °F 9.8 °F 9.0 °F 68% 30.59 in 10.0 mi North 5.8 mph - N/A   Clear
9:53 PM 16.0 °F 7.4 °F 9.0 °F 74% 30.59 in 10.0 mi NW 5.8 mph - N/A   Clear
10:53 PM 12.9 °F 1.6 °F 7.0 °F 77% 30.59 in 10.0 mi NW 8.1 mph - N/A   Clear
11:53 PM 14.0 °F 5.1 °F 8.1 °F 77% 30.58 in 10.0 mi WNW 5.8 mph - N/A   Clear